ロニオス彗星

159P/LONEOS (2018)

English version
Home page
Updated on August 15, 2020

---------------------------------------------------------------------

・ プロフィール

・ 写真集

・ 軌道要素

Epoch 2018 June 11.0 TT = JDT 2458280.5
T 2018 May 22.80075 TT                                  Rudenko
q   3.6252070            (2000.0)            P               Q
n   0.06943706     Peri.    4.76235     +0.50884705     -0.79664283
a   5.8623960      Node    55.02423     +0.77608949     +0.26053463
e   0.3816168      Incl.   23.46270     +0.37250475     +0.54541902
P  14.2
From 811 observations 1989 Dec. 17-2020 Mar. 10, mean residual 0".5.

・ 光度変化

        m1 = 3.5 + 5 logΔ + 20 log r(t - 300)

---------------------------------------------------------------------

軌道要素はM.P.E.C. 2020-F67に掲載されたものです。
光度グラフはComet for Windowsで作成したものです。

---------------------------------------------------------------------

Copyright(C) Seiichi Yoshida (comet@aerith.net). All rights reserved.